www.pogodaiklimat.ru

Погода и климат >> Архив погоды >> Россия >> Мурманская область >> Вайда-Губа


АРХИВ ПОГОДЫ в Вайда-Губе

Время (UTC), дата Ветер
(напр.,м/с)
 
Видим.   Явления Облачность Т
(С)
Тd
(С)
f
(%)
Тe
(С)
Тes
(С)
Комфортность P
(гПа)
Po
(гПа)
Тmin
(С)
Tmax
(С)
R
(мм)
R24
(мм)
S
(см)
00 17.01 Ю 2 50 км {ливн. осадки} 10/4 300 м
[Cb cap Ac trans Cs]
-7.3 -8.5 91 -12 -12 993.4 992.5
03 17.01 ЮЗ 1 4000 м слаб. ливневой снег 10/8 300 м
[Cb cap Ac und]
-6.7 -7.8 92 -9 -9 992.5 991.6 -9.3 0.6
06 17.01 ЮЗ 1 4000 м слаб. ливневой снег 10/10 300 м
[Cb cap]
-7.3 -8.4 92 -10 -10 991.5 990.6 -9.3 0.7 14
09 17.01 ЮЗ 1 20 км в посл. час ливневой снег 9/5 300 м
[Cb cap Ac trans Ci fib]
-8.8 -10.0 91 -11 -11 991.0 990.0
12 17.01 ЮВ 5-7
{12}
4000 м слаб. крупа {метель} 9/8 200 м
[Cb cap Ac trans Ci fib]
-2.3 -5.3 80 -9 -9 990.5 989.5
15 17.01 ЮВ 5 20 км позёмок {ливн. осадки} 9/6 300 м
[Cb cap Ac trans]
-2.9 -5.5 82 -10 -10 990.5 989.6 0.7
18 17.01 Ю 2 50 км {ливн. осадки, метель} 9/4 300 м
[Sc Ac trans]
-8.4 -9.9 89 -13 -13 991.5 990.5 -1.3 0.7
21 17.01 ЮЗ 1 50 км 6/3 300 м
[Sc Ac trans]
-9.4 -11.0 88 -12 -12 992.3 991.3
00 18.01 Ю 1 50 км 9/4 300 м
[Sc Ac trans]
-6.6 -8.7 85 -9 -9 992.8 991.8
03 18.01 Ю 1 50 км 4/3 300 м
[Sc Ac lent]
-6.8 -8.9 85 -9 -9 993.4 992.4 -9.9 0.3
06 18.01 Ю 2 50 км 4/4 300 м
[Sc]
-7.5 -9.4 86 -12 -12 994.2 993.2 -9.9 15
09 18.01 Ю 1 50 км 6/4 300 м
[Sc Ac trans]
-6.4 -7.9 89 -9 -9 995.2 994.2
12 18.01 Ю 2 50 км 8/8 300 м
[Sc]
-4.9 -7.5 82 -9 -9 996.0 995.0
15 18.01 Ю 4 50 км 8/3 300 м
[Sc Ac trans]
-5.1 -7.2 85 -12 -12 996.5 995.5
18 18.01 Ю 3 50 км 9/3 300 м
[Sc Ac trans]
-5.4 -8.1 81 -11 -11 997.2 996.2 -3.7
21 18.01 Ю 4 50 км 9/3 300 м
[Sc Ac trans Cs]
-6.4 -9.4 79 -13 -13 997.6 996.6
00 19.01 Ю 6 50 км 9/4 200 м
[Cb cap Ac trans Cs]
-5.7 -8.3 82 -14 -14 998.2 997.2
03 19.01 ЮЗ 8-10
{11}
50 км позёмок 9/5 300 м
[Cb cap Ac trans Cs]
-6.1 -7.8 88 -15 -15 998.0 997.0 -7.3
06 19.01 ЮЗ 6-9
{11}
50 км позёмок 9/5 300 м
[Cb cap Ac trans]
-6.5 -8.3 87 -15 -15 998.6 997.6 -7.3 14
09 19.01 Ю 6 50 км {метель} 10/3 300 м
[Sc Ac trans Ci fib]
-6.6 -8.9 84 -15 -15 999.5 998.6
12 19.01 ЮЗ 8-10
{11}
50 км позёмок 10/5 300 м
[Cb cap Ac trans Ci fib]
-7.1 -8.6 89 -16 -16 1000.3 999.3
15 19.01 ЮЗ 8-10
{11}
50 км позёмок 10/1 300 м
[Sc Ac lent Cs]
-6.7 -8.4 88 -16 -16 1000.6 999.6
18 19.01 ЮЗ 6-8
{10}
50 км {метель} 9/4 300 м
[Sc Ac trans Cs]
-6.4 -9.4 79 -14 -14 1001.9 1000.9 -6.2
21 19.01 ЮЗ 6 4000 м слаб. снег 10/10 300 м
[Sc As op]
-5.1 -7.1 86 -13 -13 1002.8 1001.9
00 20.01 СЗ 5-8
{10}
50 км в посл. час снег 10/10 300 м
[Sc]
-2.1 -9.2 58 -8 -8 1003.5 1002.5
03 20.01 С 8-10
{11}
50 км позёмок 6/4 600 м
[Sc Ac trans]
-2.0 -10.8 51 -9 -9 1004.2 1003.2 -6.9 0.6
06 20.01 С 4-6
{11}
50 км позёмок 8/4 300 м
[Sc Cs]
-2.5 -10.5 54 -8 -8 1004.6 1003.6 -6.4 0.6 12
09 20.01 З 4 50 км {метель} 8/3 200 м
[Sc Cs]
-3.3 -9.3 63 -9 -9 1005.4 1004.4
12 20.01 З 9-12
{12}
50 км позёмок 9/3 300 м
[Sc As trans Cs]
-3.3 -8.9 65 -12 -12 1005.9 1004.9
15 20.01 З 9-13
{13}
50 км позёмок 9/6 300 м
[Sc Ci fib]
-3.8 -9.2 66 -12 -12 1005.3 1004.3
18 20.01 З 8-11
{14}
50 км позёмок 10/5 300 м
[Sc Ac trans Cs]
-3.5 -6.3 81 -12 -12 1005.1 1004.1 -1.7
21 20.01 З 9-12
{12}
50 км позёмок 9/6 300 м
[Sc Ac trans Ci fib]
-3.7 -8.4 70 -12 -12 1005.3 1004.4
00 21.01 З 10-13
{14}
50 км позёмок 4/3 <50 м
[Sc Ac trans]
-3.9 -10.7 59 -13 -13 1004.6 1003.6
03 21.01 З 10-14
{14}
50 км позёмок 8/8 200 м
[Cb cap]
-4.1 -7.5 77 -13 -13 1003.5 1002.5 -4.3
06 21.01 З 12-15
{16}
4000 м слаб. ливневой снег {метель} 8/6 300 м
[Cb cap Ac trans]
-3.9 -6.7 81 -14 -14 1002.4 1001.4 -4.3 0.0 13
09 21.01 З 2-3
{16}
1000 м ливневой снег {метель} 10/10 200 м
[Cb cap]
-3.6 -4.6 93 -8 -8 1002.3 1001.3
12 21.01 СВ 11-13
{15}
20 км позёмок {ливн. осадки} 10/10 200 м
[Cb cap]
-1.0 -8.9 55 -9 -9 1002.8 1001.9
15 21.01 СВ 9-12
{15}
50 км позёмок 10/10 300 м
[Cb cap]
-0.9 -8.6 56 -8 -8 1003.9 1003.0 0.7
18 21.01 СВ 7-9
{13}
50 км позёмок 9/6 300 м
[Sc Ci fib]
-1.3 -10.9 48 -8 -8 1004.8 1003.8 0.7
21 21.01 В 6-7
{11}
50 км {метель} 6/6 300 м
[Sc]
-1.9 -9.3 57 -8 -8 1004.8 1003.8
00 22.01 ЮЗ 2-3
{11}
1000 м ливневой снег {метель} 10/10 300 м
[Cb cap]
-5.1 -6.1 93 -9 -9 1004.5 1003.5
03 22.01 З 7-11
{18}
4000 м слаб. ливневой снег 10/10 200 м
[Cb cap]
-4.7 -5.5 94 -13 -13 1002.3 1001.4 -7.1 5
06 22.01 С 6-8
{11}
50 км позёмок {ливн. осадки} 9/9 300 м
[Cb cap]
-3.4 -7.2 75 -11 -11 1001.2 1000.2 -7.1 9 16
09 22.01 СВ 11-14
{19}
20 км метель {ливн. осадки} 9/8 300 м
[Cb cap Ac trans]
-3.0 -7.5 71 -12 -12 1001.6 1000.6
12 22.01 СВ 9-11
{15}
20 км позёмок {ливн. осадки} 9/9 300 м
[Cb cap]
-2.3 -9.0 60 -10 -10 1001.6 1000.7
15 22.01 СВ 10-12
{15}
4000 м слаб. крупа {метель} 9/9 300 м
[Cb cap]
-3.0 -6.8 75 -12 -12 1001.8 1000.9 5
18 22.01 В 8-11
{15}
4000 м слаб. ливневой снег {метель} 10/10 300 м
[Cb cap]
-3.9 -6.2 84 -12 -12 1003.1 1002.1 -2.2 2
21 22.01 В 3-4
{11}
4000 м слаб. ливневой снег {метель} 9/9 200 м
[Cb cap]
-5.0 -6.4 90 -11 -11 1004.8 1003.9
00 23.01 ЮВ 4-5
{10}
50 км позёмок {ливн. осадки} 8/5 300 м
[Cb cap Ac trans]
-5.7 -7.7 86 -12 -12 1006.4 1005.4
03 23.01 ЮЗ 2 50 км в посл. час ливневой снег {метель} 3/3 300 м
[Cb cap]
-7.0 -8.9 86 -11 -11 1008.5 1007.5 -9.9 1
06 23.01 СЗ 5 50 км в посл. час ливневой снег {метель} 8/8 300 м
[Cb cap]
-4.5 -6.7 85 -12 -12 1009.2 1008.3 -11.0 0.7 15
09 23.01 В 3-5
{12}
4000 м слаб. ливневой снег {метель} 10/10 300 м
[Cb cap]
-3.1 -5.4 84 -8 -8 1010.5 1009.5
12 23.01 СВ 12-15
{18}
20 км позёмок {ливн. осадки} 9/8 300 м
[Cb cap As trans]
-0.8 -8.0 58 -9 -9 1011.9 1010.9
15 23.01 В 7-10
{17}
4000 м слаб. ливневой снег {метель} 10/10 300 м
[Cb cap]
-1.2 -6.6 67 -8 -8 1013.7 1012.7 0.7
18 23.01 СВ 4-6
{14}
20 км в посл. час ливневой снег {метель} 8/8 300 м
[Cb cap]
-3.0 -6.0 80 -9 -9 1014.5 1013.5 0.5
21 23.01 СВ 5-8
{15}
50 км в посл. час ливневой снег {метель} 8/8 300 м
[Cb cap]
-2.4 -5.2 81 -9 -9 1014.2 1013.2

 

Местоположение метеостанции Вайда-Губа (Мурманская область, Россия): широта 69.93 долгота 31.98 высота над уровнем моря 8 м.

В архиве по умолчанию представлена погода в Вайда-Губе за последнюю неделю. Архивные данные за месяц целиком и за предыдущие месяцы, начиная с января 2011 года, Вы можете получить, выбрав интересующий диапазон дат из раскрывающегося списка и нажав кнопку "Ввод!".


*Определитесь, кто Вы:
робот инопланетянин человек

Внимание! Время в таблицах - всемирное. Для получения местного времени необходимо прибавить поправку, которая равна 3 ч.

Смотрите также архив погоды в соседних городах и на ближайших метеорологических станциях:

Погода в Порту Лиинахамари (Мурманская область, Россия) (41 км)
Погода в Цып-Наволоке (Мурманская область, Россия) (48 км)
Погода в Вардё аэропорту (Норвегия) (59 км)
Погода в Вардё (Норвегия) (59 км)
Погода в Ура-Губе (Мурманская область, Россия) (79 км)
Погода в Киркенес аэропорту (Норвегия) (83 км)
Погода в Вадсо аэропорту (Норвегия) (83 км)
Погода в Перевале (Мурманская область, Россия) (84 км)
Погода в Никеле (Мурманская область, Россия) (90 км)
Погода в Пасвике (Норвегия) (92 км)

Пояснения к столбцам:

Ветер - указаны скорость ветра в м/с - средняя за 10 мин, порывы в срок и между сроками (в фигурных скобках) и направление, откуда дует ветер: С - северный, СВ - северо-восточный, В - восточный, ЮВ - юго-восточный, Ю - южный, ЮЗ - юго-западный, З - западный, СЗ - северо-западный.
Видимость - горизонтальная дальность видимости в метрах или километрах. При видимости от 1 до 10 км при отсутствии осадков обычно наблюдается дымка, при ухудшении видимости до 1 км и менее - туман. В сухую погоду видимость может ухудшаться дымом, пылью или мглою.
Явления - указаны атмосферные явления, наблюдавшиеся в срок или в последний час перед сроком; фигурными скобками обозначены явления, наблюдавшиеся между сроками (за 1-3 часа до срока); квадратными скобками обозначены град или гололедные отложения с указанием их диаметра в мм.
Облачность - указаны через наклонную черту общая и нижняя облачность в баллах и высота нижней границы облаков в метрах; квадратными скобками обозначены формы облаков: Ci - перистые, Cs - перисто-слоистые, Cc - перисто-кучевые, Ac - высококучевые, As - высокослоистые, Sc - слоисто-кучевые, Ns - слоисто-дождевые, Cu - кучевые, Cb - кучево-дождевые. Подробнее классификацию облаков см. в Атласе облаков (PDF).
T - Температура воздуха - температура, измеренная на высоте 2 м над землей.
Td - Температура точки росы - температура, при понижении до которой содержащийся в воздухе водяной пар достигнет насыщения.
f - Относительная влажность воздуха - влажноcть воздуха, измеренная на высоте 2 м над землей.
Te - Эффективная температура - температура, которую ощущает одетый по сезону человек в тени. Характеристика душности погоды. При расчете учитывается влияние влажности воздуха и скорости ветра на теплоощущения человека.
Tes - Эффективная температура на солнце - температура, которую ощущает человек, с поправкой на солнечный нагрев. Характеристика знойности погоды. Зависит от высоты солнца над горизонтом, облачности и скорости ветра. Ночью, в пасмурную погоду, а также при ветре 12 м/с и более поправка равна нулю.
P - Атмосферное давление - приведенное к уровню моря атмосферное давление.
Po - Атмосферное давление - измеренное на уровне метеостанции атмосферное давление.
Tmin - Минимальная температура - минимум температуры воздуха на высоте 2 м над землей.
Tmax - Максимальная температура - максимум температуры воздуха на высоте 2 м над землей.
R - Количество осадков - Количество выпавших осадков за период времени, мм. При наведении курсора мыши на число - период времени, за который выпало указанное количество осадков.
R24 - Количество осадков - Количество выпавших осадков за 24 часа, мм.
S - Снежный покров - Высота снежного покрова, см. При наведении курсора мыши на число - состояние снежного покрова и степень покрытия местности в баллах.